Date String (YYYY-MM-DD hh:mm:ss) UTC,Instrument flags,Ambient pressure (hPa),Sample flow (lpm),Bypass flow (lpm),Sample temperature (°C),Ambient temperature (°C),ASC tube jacket temperature (°C),LED temperature (°C),Box temperature (°C),Sample RH (%),Span deviation,Mass concentration (μg/m³),Mass concentration (μg/m³),Mass concentration (μg/m³)
DateTimeUTC,F1_M11,P_M11,Q1_M11,Q2_M11,T1_M11,T2_M11,T3_M11,T4_M11,T5_M11,U1_M11,ZSPAN_M11,X0_M11,X2_M11,X1_M11
2021-12-23 13:00:00,,0819.1,5.01,0.00,24.9,24.2,00.0,33.9,26.7,08.4,0000.0,0000.62,0000.33,0000.25
2021-12-23 13:01:00,,0819.2,5.01,0.00,24.9,24.2,00.0,33.9,26.7,08.4,0000.0,0000.45,0000.32,0000.25
2021-12-23 13:02:00,,0819.1,4.99,0.00,24.9,24.2,00.0,33.9,26.7,08.5,0000.0,0000.35,0000.28,0000.25
2021-12-23 13:03:00,,0819.2,4.99,0.00,24.9,24.2,00.0,33.9,26.7,08.4,0000.0,0000.35,0000.28,0000.26
2021-12-23 13:04:00,,0819.2,5.01,0.00,24.9,24.2,00.0,33.9,26.7,08.4,0000.0,0000.36,0000.29,0000.26
2021-12-23 13:05:00,,0819.2,4.99,0.00,24.9,24.2,00.0,33.9,26.7,08.4,0000.0,0000.41,0000.31,0000.26
2021-12-23 13:06:00,,0819.3,5.00,0.00,24.9,24.2,00.0,33.9,26.7,08.3,0000.0,0000.44,0000.32,0000.27
2021-12-23 13:07:00,,0819.3,4.99,0.00,24.9,24.2,00.0,33.9,26.7,08.4,0000.0,0000.43,0000.32,0000.26
2021-12-23 13:08:00,,0819.2,4.99,0.00,24.9,24.2,00.0,33.9,26.7,08.4,0000.0,0000.42,0000.32,0000.26
2021-12-23 13:09:00,,0819.3,5.00,0.00,24.9,24.2,00.0,33.9,26.7,08.3,0000.0,0000.42,0000.32,0000.26
2021-12-23 13:10:00,,0819.3,4.99,0.00,24.9,24.2,00.0,33.9,26.7,08.3,0000.0,0000.44,0000.33,0000.27
2021-12-23 13:11:00,,0819.2,5.01,0.00,24.9,24.2,00.0,33.9,26.7,08.3,0000.0,0000.57,0000.35,0000.28
2021-12-23 13:12:00,,0819.3,5.00,0.00,24.9,24.2,00.0,33.9,26.7,08.3,0000.0,0000.72,0000.36,0000.28
2021-12-23 13:13:00,,0819.3,5.01,0.00,24.9,24.2,00.0,33.9,26.7,08.3,0000.0,0000.80,0000.36,0000.28
2021-12-23 13:14:00,,0819.4,4.99,0.00,24.9,24.2,00.0,33.9,26.7,08.3,0000.0,0000.88,0000.37,0000.29
2021-12-23 13:15:00,,0819.4,5.00,0.00,24.9,24.2,00.0,33.9,26.7,08.3,0000.0,0001.06,0000.40,0000.30
2021-12-23 13:16:00,,0819.4,5.00,0.00,24.9,24.2,00.0,33.9,26.7,08.3,0000.0,0002.23,0000.41,0000.30
2021-12-23 13:17:00,,0819.4,4.99,0.00,24.9,24.2,00.0,33.9,26.7,08.3,0000.0,0002.27,0000.40,0000.30
2021-12-23 13:18:00,,0819.5,5.01,0.00,24.9,24.2,00.0,33.9,26.7,08.3,0000.0,0002.27,0000.41,0000.30
2021-12-23 13:19:00,,0819.7,4.98,0.00,24.9,24.1,00.0,33.9,26.7,08.3,0000.0,0002.39,0000.43,0000.30
2021-12-23 13:20:00,,0819.5,5.01,0.00,24.9,24.2,00.0,33.9,26.7,08.3,0000.0,0002.48,0000.46,0000.31
2021-12-23 13:21:00,,0819.4,5.00,0.00,24.9,24.2,00.0,33.9,26.7,08.3,0000.0,0002.50,0000.47,0000.32
2021-12-23 13:22:00,,0819.4,5.01,0.00,24.9,24.2,00.0,33.9,26.7,08.4,0000.0,0002.43,0000.48,0000.32
2021-12-23 13:23:00,,0819.5,4.99,0.00,24.9,24.2,00.0,33.9,26.6,08.3,0000.0,0002.46,0000.54,0000.32
2021-12-23 13:24:00,,0819.4,5.00,0.00,24.9,24.1,00.0,33.9,26.6,08.5,0000.0,0002.48,0000.56,0000.33
2021-12-23 13:25:00,,0819.3,5.00,0.00,24.9,24.1,00.0,33.9,26.6,08.6,0000.0,0002.35,0000.54,0000.32
2021-12-23 13:26:00,,0819.3,5.00,0.00,24.9,24.1,00.0,33.9,26.6,09.0,0000.0,0002.19,0000.51,0000.31
2021-12-23 13:27:00,,0819.3,5.01,0.00,24.9,24.1,00.0,33.9,26.6,08.5,0000.0,0001.15,0000.50,0000.32
2021-12-23 13:28:00,,0819.3,5.00,0.00,24.8,24.1,00.0,33.9,26.6,08.4,0000.0,0001.01,0000.51,0000.32
2021-12-23 13:29:00,,0819.2,5.00,0.00,24.8,24.1,00.0,33.9,26.6,08.4,0000.0,0001.04,0000.52,0000.32
2021-12-23 13:30:00,,0819.2,5.00,0.00,24.8,24.0,00.0,33.8,26.5,08.8,0000.0,0000.99,0000.52,0000.33
2021-12-23 13:31:00,,0819.2,5.01,0.00,24.8,24.0,00.0,33.8,26.5,08.6,0000.0,0000.91,0000.50,0000.33
2021-12-23 13:32:00,,0819.3,4.99,0.00,24.8,24.0,00.0,33.8,26.5,08.4,0000.0,0000.95,0000.51,0000.33
2021-12-23 13:33:00,,0819.2,5.00,0.00,24.8,24.0,00.0,33.8,26.5,08.4,0000.0,0001.05,0000.54,0000.34
2021-12-23 13:34:00,,0819.3,5.01,0.00,24.8,24.0,00.0,33.8,26.5,08.6,0000.0,0000.99,0000.53,0000.34
2021-12-23 13:35:00,,0819.3,5.00,0.00,24.8,24.0,00.0,33.8,26.5,08.4,0000.0,0001.17,0000.54,0000.35
2021-12-23 13:36:00,,0819.3,4.99,0.00,24.8,24.0,00.0,33.8,26.6,08.5,0000.0,0002.00,0000.60,0000.37
2021-12-23 13:37:00,,0819.4,4.99,0.00,24.8,24.1,00.0,33.8,26.6,08.4,0000.0,0002.11,0000.64,0000.38
2021-12-23 13:38:00,,0819.4,5.01,0.00,24.8,24.1,00.0,33.8,26.6,08.4,0000.0,0003.09,0000.65,0000.39
2021-12-23 13:39:00,,0819.4,4.99,0.00,24.8,24.1,00.0,33.8,26.6,08.3,0000.0,0003.01,0000.65,0000.40
2021-12-23 13:40:00,,0819.4,5.00,0.00,24.8,24.1,00.0,33.8,26.6,08.3,0000.0,0003.51,0000.67,0000.42
2021-12-23 13:41:00,,0819.3,5.00,0.00,24.8,24.1,00.0,33.8,26.6,08.3,0000.0,0004.05,0000.69,0000.43
2021-12-23 13:42:00,,0819.2,5.00,0.00,24.9,24.1,00.0,33.8,26.6,08.5,0000.0,0004.10,0000.71,0000.44
2021-12-23 13:43:00,,0819.2,4.99,0.00,24.9,24.1,00.0,33.8,26.6,08.5,0000.0,0004.18,0000.72,0000.44
2021-12-23 13:44:00,,0819.1,5.01,0.00,24.9,24.1,00.0,33.8,26.6,08.6,0000.0,0004.23,0000.70,0000.43
2021-12-23 13:45:00,,0819.1,4.98,0.00,24.8,24.1,00.0,33.8,26.6,08.6,0000.0,0004.19,0000.65,0000.43
2021-12-23 13:46:00,,0819.1,5.01,0.00,24.8,24.1,00.0,33.8,26.6,08.5,0000.0,0004.20,0000.65,0000.42
2021-12-23 13:47:00,,0819.1,4.99,0.00,24.8,24.1,00.0,33.8,26.6,08.5,0000.0,0003.47,0000.62,0000.42
2021-12-23 13:48:00,,0819.2,5.00,0.00,24.9,24.1,00.0,33.8,26.6,08.5,0000.0,0003.22,0000.60,0000.42
2021-12-23 13:49:00,,0819.1,5.01,0.00,24.9,24.2,00.0,33.8,26.6,08.4,0000.0,0002.85,0000.60,0000.43
2021-12-23 13:50:00,,0819.1,4.98,0.00,24.9,24.2,00.0,33.8,26.7,08.4,0000.0,0002.65,0000.63,0000.44
2021-12-23 13:51:00,,0819.1,5.01,0.00,24.9,24.2,00.0,33.8,26.7,08.5,0000.0,0002.76,0000.62,0000.43
2021-12-23 13:52:00,,0818.9,4.99,0.00,24.9,24.2,00.0,33.8,26.6,08.7,0000.0,0001.82,0000.61,0000.41
2021-12-23 13:53:00,,0819.0,5.01,0.00,24.9,24.2,00.0,33.8,26.6,08.6,0000.0,0001.76,0000.60,0000.40
2021-12-23 13:54:00,,0819.0,5.00,0.00,24.9,24.2,00.0,33.8,26.7,08.6,0000.0,0001.69,0000.58,0000.41
2021-12-23 13:55:00,,0819.0,5.01,0.00,24.9,24.2,00.0,33.8,26.7,08.5,0000.0,0001.64,0000.57,0000.40
2021-12-23 13:56:00,,0818.9,4.99,0.00,24.9,24.2,00.0,33.8,26.7,08.4,0000.0,0001.52,0000.59,0000.41
2021-12-23 13:57:00,,0818.8,5.01,0.00,24.9,24.2,00.0,33.8,26.7,08.5,0000.0,0001.55,0000.59,0000.42
2021-12-23 13:58:00,,0818.8,4.99,0.00,24.9,24.2,00.0,33.8,26.7,08.5,0000.0,0001.57,0000.59,0000.42
2021-12-23 13:59:00,,0818.8,5.01,0.00,24.9,24.2,00.0,33.8,26.7,08.5,0000.0,0001.61,0000.60,0000.42
